Williston, ND

12:02 AM CDT on September 01, 2016 (GMT -0500)
Sloulin International

Weather History for KISN - May, 2013

Change the Weather History Date:

Friday, May 31, 2013

  Actual Average Record
Temperature  
Mean Temperature 52 °F 59 °F  
Max Temperature 54 °F 72 °F 93 °F (1986)
Min Temperature 49 °F 45 °F 31 °F (1998)
Degree Days  
Heating Degree Days 13 7  
Month to date heating degree days 348 349  
Since 1 July heating degree days 9293 8874  
Cooling Degree Days 0 1  
Month to date cooling degree days 8 12  
Year to date cooling degree days 8 13  
Growing Degree Days 1 (Base 50)    
Moisture  
Dew Point 48 °F    
Average Humidity 82    
Maximum Humidity 100    
Minimum Humidity 64    
Precipitation  
Precipitation 1.07 in 0.08 in 1.20 in (1899)
Month to date precipitation 4.99 1.92  
Year to date precipitation 7.81 4.61  
Snow  
Snow 0.00 in - - ()
Month to date snowfall 0.0  
Snow Depth 0.00 in    
Sea Level Pressure  
Sea Level Pressure 29.67 in    
Wind  
Wind Speed 16 mph (NNE)    
Max Wind Speed 28 mph    
Max Gust Speed 37 mph    
Visibility 8 miles    
Events Rain    
T = Trace of Precipitation, MM = Missing Value Source: NWS Daily Summary

Daily Weather History Graph

Daily Weather History Graph

Search for Another Location

Airport or City:

Trip Planner

Search our weather history database for the weather conditions in past years. The results will help you decide how hot, cold, wet, or windy it might be!

Date:

Astronomy

May. 31, 2013 Rise Set
Actual Time 5:59 AM CDT 9:46 PM CDT
Civil Twilight 5:19 AM CDT 10:26 PM CDT
Nautical Twilight 4:24 AM CDT 11:20 PM CDT
Astronomical Twilight 3:05 AM CDT 12:42 AM CDT
Moon 1:59 AM CDT (5/31) 1:41 PM CDT (5/31)
Length of Visible Light 17h 07m
Length of Day
15h 47m
Waning Gibbous, 51% of the Moon is Illuminated
May 31
Waning Gibbous
May 31
Last Quarter
Jun 8
New
Jun 16
First Quarter
Jun 23
Full

Hourly Weather History & Observations

Time (CDT) Temp. Dew Point Humidity Pressure Visibility Wind Dir Wind Speed Gust Speed Precip Events Conditions
12:52 AM 53.1 °F 52.0 °F 96% 29.48 in 5.0 mi NE 15.0 mph 23.0 mph 0.01 in Rain Light Rain
1:52 AM 53.1 °F 51.1 °F 93% 29.49 in 8.0 mi NE 15.0 mph 25.3 mph 0.05 in Rain Light Rain
2:52 AM 52.0 °F 51.1 °F 97% 29.50 in 10.0 mi NNE 15.0 mph - 0.10 in Rain Light Rain
3:38 AM 51.8 °F 50.0 °F 94% 29.48 in 7.0 mi NE 19.6 mph 25.3 mph 0.03 in Rain Rain
3:47 AM 51.8 °F 50.0 °F 94% 29.48 in 8.0 mi NE 18.4 mph 28.8 mph 0.05 in Rain Light Rain
3:52 AM 52.0 °F 50.0 °F 93% 29.49 in 7.0 mi NE 18.4 mph 28.8 mph 0.05 in Rain Rain
4:52 AM 51.1 °F 50.0 °F 96% 29.50 in 8.0 mi NE 18.4 mph 27.6 mph 0.07 in Rain Rain
5:52 AM 51.1 °F 48.9 °F 92% 29.51 in 10.0 mi NNE 16.1 mph - 0.04 in Rain Light Rain
6:52 AM 50.0 °F 48.9 °F 96% 29.53 in 7.0 mi NNE 16.1 mph 24.2 mph 0.13 in Rain Rain
7:52 AM 50.0 °F 48.9 °F 96% 29.55 in 5.0 mi NNE 15.0 mph 25.3 mph 0.12 in Rain Heavy Rain
8:52 AM 50.0 °F 48.0 °F 93% 29.58 in 8.0 mi NNE 18.4 mph 28.8 mph 0.10 in Rain Light Rain
9:52 AM 50.0 °F 48.0 °F 93% 29.60 in 4.0 mi NNE 20.7 mph 31.1 mph 0.11 in Rain Rain
10:17 AM 50.0 °F 48.2 °F 94% 29.59 in 7.0 mi NNE 17.3 mph 31.1 mph 0.04 in Rain Light Rain
10:27 AM 50.0 °F 48.2 °F 94% 29.59 in 7.0 mi NNE 18.4 mph 26.5 mph 0.05 in Rain Rain
10:52 AM 50.0 °F 48.0 °F 93% 29.62 in 7.0 mi NNE 25.3 mph 32.2 mph 0.06 in Rain Rain
11:50 AM 48.2 °F 48.2 °F 100% 29.62 in 7.0 mi North 20.7 mph 27.6 mph 0.05 in Rain Light Rain
11:52 AM 48.9 °F 48.0 °F 97% 29.64 in 7.0 mi North 19.6 mph 27.6 mph 0.06 in Rain Light Rain
12:08 PM 48.2 °F 48.2 °F 100% 29.63 in 4.0 mi NNE 18.4 mph 28.8 mph 0.01 in Rain Rain
12:20 PM 48.2 °F 48.2 °F 100% 29.64 in 4.0 mi NNE 18.4 mph 27.6 mph 0.03 in Rain Rain
12:52 PM 50.0 °F 48.9 °F 96% 29.67 in 10.0 mi NNE 18.4 mph 26.5 mph 0.03 in Rain Light Rain
1:44 PM 50.0 °F 48.2 °F 94% 29.68 in 7.0 mi North 16.1 mph 26.5 mph 0.03 in Rain Light Rain
1:52 PM 50.0 °F 48.9 °F 96% 29.70 in 5.0 mi North 17.3 mph 25.3 mph 0.05 in Rain Rain
2:24 PM 50.0 °F 48.2 °F 94% 29.70 in 8.0 mi NNE 17.3 mph 31.1 mph 0.04 in Rain Light Rain
2:41 PM 50.0 °F 48.2 °F 94% 29.71 in 6.0 mi NNE 18.4 mph 26.5 mph 0.06 in Rain Light Rain
2:52 PM 50.0 °F 48.0 °F 93% 29.73 in 9.0 mi NNE 19.6 mph 29.9 mph 0.06 in Rain Light Rain
3:01 PM 50.0 °F 48.2 °F 94% 29.72 in 10.0 mi NNE 21.9 mph 28.8 mph 0.00 in Rain Light Rain
3:52 PM 51.1 °F 48.0 °F 89% 29.77 in 10.0 mi NNE 21.9 mph 31.1 mph 0.03 in Rain Light Rain
4:52 PM 51.1 °F 48.0 °F 89% 29.80 in 10.0 mi NNE 19.6 mph 28.8 mph 0.02 in   Overcast
5:52 PM 52.0 °F 46.9 °F 83% 29.83 in 10.0 mi NE 17.3 mph 24.2 mph N/A   Overcast
6:02 PM 53.6 °F 46.4 °F 77% 29.82 in 10.0 mi NNE 21.9 mph 29.9 mph N/A   Overcast
6:52 PM 53.1 °F 46.0 °F 77% 29.86 in 10.0 mi NNE 12.7 mph 19.6 mph N/A   Overcast
7:52 PM 54.0 °F 44.1 °F 69% 29.89 in 10.0 mi NNE 16.1 mph 24.2 mph N/A   Overcast
8:52 PM 53.1 °F 41.0 °F 64% 29.93 in 10.0 mi NE 16.1 mph 20.7 mph N/A   Overcast
9:52 PM 52.0 °F 42.1 °F 69% 29.96 in 10.0 mi NNE 8.1 mph - N/A   Overcast
10:52 PM 50.0 °F 43.0 °F 77% 30.00 in 10.0 mi North 5.8 mph - N/A   Overcast
11:52 PM 50.0 °F 43.0 °F 77% 30.02 in 10.0 mi NNW 4.6 mph - N/A   Overcast